Weather History for YSSY - August, 2014

Change the Weather History Date:

Wednesday, August 20, 2014

  Actual Average Record
Temperature  
Mean Temperature 54 °F -  
Max Temperature 59 °F 68 °F 75 °F (1999)
Min Temperature 50 °F 49 °F 39 °F (1996)
Degree Days  
Heating Degree Days 10    
Growing Degree Days 4 (Base 50)    
Moisture  
Dew Point 44 °F    
Average Humidity 64    
Maximum Humidity 82    
Minimum Humidity 44    
Precipitation  
Precipitation 0.24 in 0.09 in - ()
Sea Level Pressure  
Sea Level Pressure 30.24 in    
Wind  
Wind Speed 16 mph ()    
Max Wind Speed 25 mph    
Max Gust Speed 32 mph    
Visibility 7.3 miles    
Events Rain    
Averages and records for this station are not official NWS values.
T = Trace of Precipitation, MM = Missing Value Source: Averaged Metar Reports

Daily Weather History Graph

Daily Weather History Graph

Search for Another Location

Airport or City:

Trip Planner

Search our weather history database for the weather conditions in past years. The results will help you decide how hot, cold, wet, or windy it might be!

Date:

Astronomy

Aug. 20, 2014 Rise Set
Actual Time 6:29 AM AEST 5:28 PM AEST
Civil Twilight 6:03 AM AEST 5:54 PM AEST
Nautical Twilight 5:34 AM AEST 6:23 PM AEST
Astronomical Twilight 5:05 AM AEST 6:52 PM AEST
Moon 2:21 AM AEST (8/20) 12:55 PM AEST (8/20)
Length of Visible Light 11h 50m
Length of Day
10h 59m
Waning Crescent, 25% of the Moon is Illuminated
Aug 20
Waning Crescent
Aug 26
New
Sep 2
First Quarter
Sep 9
Full
Sep 16
Last Quarter

Hourly Weather History & Observations

Time (AEST) Temp. Dew Point Humidity Pressure Visibility Wind Dir Wind Speed Gust Speed Precip Events Conditions
12:00 AM 55 °F 42 °F 52% 30.16 in 16 mi SW 20.7 mph - -   Mostly Cloudy
12:00 AM 55.4 °F 42.8 °F 63% 30.15 in 6.2 mi SW 20.7 mph - N/A   Mostly Cloudy
12:30 AM 55.4 °F 42.8 °F 63% 30.15 in 6.2 mi SSW 24.2 mph - N/A   Scattered Clouds
1:00 AM 55 °F 43 °F 53% 30.17 in - SW 19.6 mph - -  
1:00 AM 55.4 °F 42.8 °F 63% 30.15 in 6.2 mi SW 19.6 mph - N/A   Partly Cloudy
1:30 AM 53.6 °F 42.8 °F 67% 30.15 in 6.2 mi SW 19.6 mph - N/A   Partly Cloudy
2:00 AM 53 °F 42 °F 56% 30.17 in - WSW 15.0 mph - -  
2:00 AM 53.6 °F 41.0 °F 62% 30.15 in 6.2 mi WSW 15.0 mph - N/A   Partly Cloudy
2:30 AM 50.0 °F 41.0 °F 71% 30.15 in 6.2 mi WSW 15.0 mph - N/A   Mostly Cloudy
3:00 AM 52 °F 42 °F 60% 30.17 in 16 mi WSW 12.7 mph - -   Partly Cloudy
3:00 AM 51.8 °F 42.8 °F 71% 30.15 in 6.2 mi WSW 12.7 mph - N/A   Scattered Clouds
3:30 AM 51.8 °F 41.0 °F 67% 30.15 in 6.2 mi West 15.0 mph - N/A   Mostly Cloudy
4:00 AM 51 °F 41 °F 60% 30.18 in - WSW 16.1 mph - -  
4:00 AM 50.0 °F 41.0 °F 71% 30.15 in 6.2 mi WSW 16.1 mph - N/A   Mostly Cloudy
4:30 AM 50.0 °F 41.0 °F 71% 30.18 in 6.2 mi West 16.1 mph - N/A   Mostly Cloudy
5:00 AM 51 °F 42 °F 63% 30.19 in - West 16.1 mph - -  
5:00 AM 50.0 °F 42.8 °F 76% 30.18 in 6.2 mi West 16.1 mph - N/A   Mostly Cloudy
5:30 AM 51.8 °F 41.0 °F 67% 30.18 in 6.2 mi WSW 15.0 mph - N/A Rain Light Rain Showers
6:00 AM 51 °F 42 °F 61% 30.21 in 19 mi West 15.0 mph - - Rain Light Rain Showers
6:00 AM 51.8 °F 41.0 °F 67% 30.21 in 6.2 mi West 15.0 mph - N/A   Mostly Cloudy
6:30 AM 51.8 °F 41.0 °F 67% 30.21 in 6.2 mi West 13.8 mph - N/A   Mostly Cloudy
7:00 AM 51 °F 43 °F 66% 30.24 in - West 12.7 mph - -  
7:00 AM 50.0 °F 42.8 °F 76% 30.21 in 6.2 mi West 12.7 mph - N/A   Mostly Cloudy
7:30 AM 50.0 °F 44.6 °F 82% 30.24 in 6.2 mi West 11.5 mph - N/A   Scattered Clouds
8:00 AM 54 °F 44 °F 59% 30.25 in - West 11.5 mph - -  
8:00 AM 53.6 °F 44.6 °F 72% 30.24 in 6.2 mi West 11.5 mph - N/A   Mostly Cloudy
8:30 AM 55.4 °F 42.8 °F 63% 30.24 in 6.2 mi WSW 15.0 mph - N/A   Mostly Cloudy
9:00 AM 55 °F 44 °F 58% 30.26 in 22 mi WSW 12.7 mph - -   Mostly Cloudy
9:00 AM 55.4 °F 44.6 °F 67% 30.24 in 6.2 mi WSW 12.7 mph - N/A   Mostly Cloudy
9:14 AM 55.4 °F 44.6 °F 67% 30.24 in 6.2 mi SW 19.6 mph - N/A   Mostly Cloudy
9:30 AM 55.4 °F 44.6 °F 67% 30.24 in 6.2 mi SSW 19.6 mph - N/A   Mostly Cloudy
10:00 AM 57 °F 44 °F 51% 30.27 in - SSW 20.7 mph - -  
10:00 AM 57.2 °F 44.6 °F 63% 30.27 in 6.2 mi SSW 20.7 mph - N/A   Mostly Cloudy
10:30 AM 55.4 °F 44.6 °F 67% 30.27 in 6.2 mi SSW 19.6 mph - N/A   Mostly Cloudy
10:52 AM 57.2 °F 42.8 °F 59% 30.27 in 6.2 mi South 20.7 mph 32.2 mph N/A   Mostly Cloudy
11:00 AM 56 °F 44 °F 55% 30.28 in - South 25.3 mph - -  
11:00 AM 55.4 °F 44.6 °F 67% 30.27 in 6.2 mi South 25.3 mph - N/A Rain Light Rain Showers
11:30 AM 57.2 °F 44.6 °F 63% 30.27 in 6.2 mi SSW 17.3 mph - N/A   Mostly Cloudy
12:00 PM 57 °F 44 °F 52% 30.27 in 19 mi South 19.6 mph - -   Mostly Cloudy
12:00 PM 57.2 °F 44.6 °F 63% 30.27 in 6.2 mi South 19.6 mph - N/A   Mostly Cloudy
12:30 PM 57.2 °F 42.8 °F 59% 30.24 in 6.2 mi SSW 20.7 mph - N/A   Mostly Cloudy
1:00 PM 58 °F 44 °F 50% 30.25 in - South 20.7 mph - -  
1:00 PM 57.2 °F 44.6 °F 63% 30.24 in 6.2 mi South 20.7 mph - N/A   Mostly Cloudy
1:30 PM 59.0 °F 44.6 °F 59% 30.24 in 6.2 mi South 21.9 mph - N/A   Scattered Clouds
2:00 PM 59 °F 43 °F 44% 30.25 in - South 18.4 mph - -  
2:00 PM 59.0 °F 42.8 °F 55% 30.24 in 6.2 mi South 18.4 mph - N/A   Scattered Clouds
2:30 PM 59.0 °F 44.6 °F 59% 30.24 in 6.2 mi South 19.6 mph - N/A   Scattered Clouds
3:00 PM 59 °F 44 °F 48% 30.25 in 25 mi South 20.7 mph - -   Mostly Cloudy
3:00 PM 59.0 °F 44.6 °F 59% 30.24 in 6.2 mi South 20.7 mph - N/A   Mostly Cloudy
3:30 PM 59.0 °F 46.4 °F 63% 30.24 in 6.2 mi South 19.6 mph - N/A   Mostly Cloudy
4:00 PM 58 °F 46 °F 54% 30.26 in - South 20.7 mph - -  
4:00 PM 59.0 °F 46.4 °F 63% 30.24 in 6.2 mi South 20.7 mph - N/A   Mostly Cloudy
4:30 PM 59.0 °F 46.4 °F 63% 30.24 in 6.2 mi South 17.3 mph - N/A   Mostly Cloudy
5:00 PM 58 °F 47 °F 56% 30.27 in - South 17.3 mph - -  
5:00 PM 59.0 °F 46.4 °F 63% 30.27 in 6.2 mi South 17.3 mph - N/A   Mostly Cloudy
5:30 PM 57.2 °F 46.4 °F 67% 30.27 in 6.2 mi South 17.3 mph - N/A   Mostly Cloudy
6:00 PM 58 °F 46 °F 55% 30.29 in 19 mi South 17.3 mph - -   Partly Cloudy
6:00 PM 57.2 °F 46.4 °F 67% 30.27 in 6.2 mi South 17.3 mph - N/A   Mostly Cloudy
6:30 PM 57.2 °F 48.2 °F 72% 30.27 in 6.2 mi South 15.0 mph - N/A   Mostly Cloudy
7:00 PM 57 °F 47 °F 59% 30.30 in - South 13.8 mph - -  
7:00 PM 57.2 °F 46.4 °F 67% 30.30 in 6.2 mi South 13.8 mph - N/A   Scattered Clouds
7:30 PM 57.2 °F 46.4 °F 67% 30.30 in 6.2 mi SSW 13.8 mph - N/A   Partly Cloudy
8:00 PM 57 °F 48 °F 64% 30.32 in - South 17.3 mph - -  
8:00 PM 57.2 °F 48.2 °F 72% 30.30 in 6.2 mi South 17.3 mph - N/A   Partly Cloudy
8:30 PM 57.2 °F 46.4 °F 67% 30.30 in 6.2 mi SSW 15.0 mph - N/A   Scattered Clouds
9:00 PM 57 °F 47 °F 59% 30.33 in 16 mi SSW 15.0 mph - -   Partly Cloudy
9:00 PM 57.2 °F 46.4 °F 67% 30.30 in 6.2 mi SSW 15.0 mph - N/A   Scattered Clouds
9:30 PM 57.2 °F 46.4 °F 67% 30.30 in 6.2 mi SSW 13.8 mph - N/A   Scattered Clouds
10:00 PM 56 °F 47 °F 64% 30.33 in - SSW 13.8 mph - -  
10:00 PM 55.4 °F 48.2 °F 77% 30.30 in 6.2 mi SSW 13.8 mph - N/A   Partly Cloudy
10:30 PM 55.4 °F 46.4 °F 72% 30.30 in 6.2 mi SW 13.8 mph - N/A Rain Light Rain Showers
11:00 PM 54 °F 48 °F 74% 30.33 in - SSE 8.1 mph - -  
11:00 PM 53.6 °F 48.2 °F 82% 30.33 in 5.6 mi SSE 8.1 mph - N/A Rain Rain Showers
11:14 PM 53.6 °F 48.2 °F 82% 30.33 in 4.3 mi South 5.8 mph - N/A Rain Rain Showers
11:30 PM 53.6 °F 48.2 °F 82% 30.33 in 3.7 mi SSW 4.6 mph - N/A Rain Rain Showers